#timestamp,LO_Frequency,Hit,StdDev 
1561492815.7,286047007.4,N
1561492835.5,286047006.7,N
1561492855.4,286047006.2,N
1561492875.2,286047006.8,N
1561492895.1,286047009.0,Y
1561492896.0,286047009.0,P
1561492915.8,286047001.5,N
1561492935.6,286047001.5,N
1561492955.5,286047002.0,N
1561492975.3,286047004.2,N
1561492995.2,286047001.3,N
1561493015.9,286047003.7,N
1561493035.7,286047002.9,N
1561493055.6,286047003.2,N
1561493075.4,286047005.9,N
1561493095.2,286047004.2,N
1561493115.1,286047011.9,Y
1561493116.0,286047002.8,P
1561493135.8,286046995.4,P
1561493155.7,286046995.6,N
1561493175.5,286046996.3,N
1561493195.3,286046994.6,N
1561493215.2,286046995.8,N
1561493235.0,286046996.1,N
1561493235.9,286046996.1,N
1561493255.7,286046996.8,N
1561493275.6,286046997.2,N
1561493295.4,286046998.6,N
1561493315.3,286046999.1,N
1561493335.1,286046998.9,N
1561493336.0,286046998.9,N
1561493355.8,286047001.2,N
1561493375.7,286046998.6,N
1561493395.5,286046996.8,N
1561493415.3,286046999.4,N
1561493435.2,286047001.1,N
1561493455.0,286046999.6,N
1561493455.9,286046999.6,N
1561493475.8,286046997.2,N
1561493495.6,286047011.9,Y
1561493515.4,286046997.8,P
1561493535.3,286046996.8,P
1561493555.1,286046996.7,P
1561493575.9,286046997.4,Y
1561493595.7,286047002.6,P
1561493615.5,286046999.7,N
1561493635.4,286047002.0,N
1561493655.2,286047004.2,N
1561493675.0,286047003.0,N
1561493676.0,286047003.0,N
1561493695.8,286047003.0,N
1561493715.6,286047003.7,N
1561493735.5,286047004.0,N
1561493755.3,286047004.0,N
1561493775.1,286047003.7,N
1561493795.9,286047004.2,N
1561493815.7,286047003.9,N
1561493835.6,286047003.4,N
1561493855.4,286047003.1,N
1561493875.2,286047003.8,N
1561493895.1,286047001.1,N
1561493896.0,286047001.1,N
1561493915.8,286046996.8,N
1561493935.6,286046997.4,N
1561493955.5,286046998.8,N
1561493975.3,286046996.9,N
1561493995.2,286046996.6,N
1561494015.9,286046997.0,N
1561494035.7,286046996.9,N
1561494055.6,286046997.0,N
1561494075.4,286046996.2,N
1561494095.2,286046995.4,N
1561494115.1,286046995.6,N
1561494116.0,286046995.6,N
1561494135.8,286046996.8,N
1561494155.7,286046997.3,N
1561494175.5,286046996.9,N
1561494195.3,286046998.5,N
1561494215.2,286047000.3,N
1561494235.0,286046999.8,N
1561494235.9,286046999.8,N
1561494255.8,286046998.5,N
1561494275.6,286047002.4,N
1561494295.4,286047002.6,N
1561494315.3,286047001.9,N
1561494335.1,286047001.6,N
1561494355.8,286047002.6,N
1561494375.7,286047001.9,N
1561494395.5,286047000.1,N
1561494415.4,286047000.8,N
1561494435.2,286047000.5,N
1561494455.0,286047001.5,N
1561494455.9,286047001.5,N
1561494475.8,286047002.6,N
1561494495.6,286047001.0,N
1561494515.4,286046999.3,N
1561494535.3,286046998.7,N
1561494555.1,286046998.4,N
1561494575.9,286046999.9,N
1561494595.7,286047001.9,N
1561494615.5,286047002.1,N
1561494635.4,286047002.4,N
1561494655.2,286047000.3,N
1561494675.0,286046999.6,N
1561494675.9,286046999.6,N
1561494695.8,286046999.3,N
1561494715.6,286046997.0,N
1561494735.5,286047000.9,N
1561494755.3,286047000.5,N
1561494775.1,286047000.6,N
1561494795.9,286046999.7,N
1561494815.7,286047000.9,N
1561494835.6,286046998.3,N
1561494855.4,286046997.8,N
1561494875.2,286046999.3,N
1561494895.1,286046999.1,N
1561494896.0,286046999.1,N
1561494915.8,286047000.8,N
1561494935.7,286046999.0,N
1561494955.5,286046997.0,N
1561494975.3,286046999.6,N
1561494995.2,286046996.5,N
1561495015.0,286046999.0,N
1561495015.9,286046999.0,N
1561495035.7,286046998.7,N
1561495055.6,286047000.7,N
1561495075.4,286046999.6,N
1561495095.3,286046998.1,N
1561495115.1,286047001.0,N
1561495135.8,286046999.8,N
1561495155.7,286047000.4,N
1561495175.5,286047001.9,N
1561495195.4,286047000.1,N
1561495215.2,286046999.6,N
1561495235.0,286046997.6,N
1561495235.9,286046997.6,N
1561495255.8,286046995.8,Y
1561495275.6,286046995.6,P
1561495295.4,286046994.2,P
1561495315.3,286046994.2,N
1561495335.1,286046991.8,Y
1561495355.9,286046997.4,P
1561495375.7,286046997.4,P
1561495395.5,286046998.5,N
1561495415.4,286046996.6,Y
1561495435.2,286046998.3,P
1561495455.0,286046999.2,N
1561495456.0,286046999.2,N
1561495475.8,286046997.7,N
1561495495.6,286046997.7,Y
1561495515.5,286046999.0,P
1561495535.3,286047001.1,P
1561495555.1,286047000.2,N
1561495575.9,286047002.4,N
1561495595.7,286047000.2,N
1561495615.6,286047002.7,N
1561495635.4,286047002.5,N
1561495655.2,286047004.2,N
1561495675.1,286047006.0,Y
1561495676.0,286047006.0,P
1561495695.8,286047002.2,N
1561495715.6,286047002.0,N
1561495735.5,286047001.3,N
1561495755.3,286047001.6,N
1561495775.2,286047002.0,N
1561495795.9,286047004.3,N
1561495815.7,286047003.9,N
1561495835.6,286047004.3,N
1561495855.4,286047002.2,N
1561495875.2,286047000.2,N
1561495895.1,286046998.1,N
1561495896.0,286046998.1,N
1561495915.8,286047000.5,N
1561495935.7,286047002.4,N
1561495955.5,286047000.0,N
1561495975.3,286046999.7,N
1561495995.2,286047002.7,N
1561496015.9,286047001.8,N
1561496035.7,286047001.5,N
1561496055.6,286047001.6,N
1561496075.4,286047001.5,N
1561496095.2,286047002.8,N
1561496115.1,286047004.3,N
1561496116.0,286047004.3,N
1561496135.8,286047004.2,N
1561496155.7,286047001.9,N
1561496175.5,286047003.1,N
1561496195.3,286047005.8,Y
1561496215.2,286047004.0,P
1561496235.0,286047000.0,N
1561496235.9,286047000.0,N
1561496255.8,286047001.7,N
1561496275.6,286047001.3,N
1561496295.4,286047000.1,N
1561496315.3,286047000.7,N
1561496335.1,286047002.0,N
1561496355.8,286047004.3,Y
1561496375.7,286047004.2,P
1561496395.5,286047003.2,N
